When you browse on this site, cookies collect data to enhance your experience and personalize the content and advertising you see.
Visit our Privacy Policy to learn more. By continuing to use the site, you agree to this use of cookies and data.
  • In Switzerland
  • List of Countries
  • For 7 days
  • Water Temperature
  • Weather Map
  • Weather Widgets
  • user-avatar
    Login

    Hourly Weather Yenakievo

    Today, 25 February, Tuesday

    Time Temperature Precipitation Wind Pressure Humidity
    00:00 -1°C° 0.5 mm 6 mps 724 mmHg 96%
    01:00 -1°C° 0.9 mm 7 mps 725 mmHg 96%
    02:00 -3°C° 0.9 mm 9 mps 726 mmHg 96%
    03:00 -4°C° 0.9 mm 11 mps 727 mmHg 96%
    04:00 -4°C° 0.6 mm 11 mps 728 mmHg 95%
    05:00 -4°C° 0.6 mm 11 mps 730 mmHg 93%
    06:00 -4°C° 0.6 mm 11 mps 731 mmHg 91%
    07:00 -4°C° 0 mm 10 mps 733 mmHg 88%
    08:00 -4°C° 0 mm 10 mps 734 mmHg 86%
    09:00 -4°C° 0 mm 9 mps 736 mmHg 83%
    10:00 -3°C° 0 mm 9 mps 737 mmHg 81%
    11:00 -2°C° 0 mm 8 mps 738 mmHg 78%
    12:00 -1°C° 0 mm 8 mps 739 mmHg 75%
    13:00 -1°C° 0 mm 7 mps 739 mmHg 71%
    14:00 0°C° 0 mm 7 mps 739 mmHg 66%
    15:00 +2°C° 0 mm 6 mps 740 mmHg 62%
    16:00 +1°C° 0 mm 5 mps 740 mmHg 65%
    17:00 0°C° 0 mm 4 mps 740 mmHg 68%
    18:00 +1°C° 0 mm 3 mps 740 mmHg 71%
    19:00 0°C° 0 mm 3 mps 741 mmHg 72%
    20:00 0°C° 0 mm 3 mps 741 mmHg 73%
    21:00 -1°C° 0 mm 3 mps 741 mmHg 75%
    22:00 -1°C° 0 mm 3 mps 741 mmHg 75%
    23:00 -1°C° 0 mm 3 mps 741 mmHg 76%

    Tomorrow, 26 February, Wednesday

    Time Temperature Precipitation Wind Pressure Humidity
    00:00 -1°C° 0 mm 3 mps 740 mmHg 76%
    01:00 -1°C° 0 mm 3 mps 740 mmHg 79%
    02:00 -2°C° 0 mm 4 mps 740 mmHg 82%
    03:00 -2°C° 0 mm 4 mps 740 mmHg 85%
    04:00 -1°C° 0 mm 4 mps 740 mmHg 86%
    05:00 -1°C° 0 mm 4 mps 739 mmHg 87%
    06:00 -1°C° 0 mm 5 mps 739 mmHg 87%
    07:00 0°C° 0 mm 5 mps 739 mmHg 87%
    08:00 -1°C° 0 mm 6 mps 739 mmHg 86%
    09:00 0°C° 0 mm 7 mps 739 mmHg 85%
    10:00 +2°C° 0 mm 7 mps 738 mmHg 79%
    11:00 +2°C° 0 mm 8 mps 738 mmHg 72%
    12:00 +5°C° 0 mm 8 mps 738 mmHg 65%
    13:00 +5°C° 0 mm 8 mps 737 mmHg 64%
    14:00 +5°C° 0 mm 8 mps 737 mmHg 63%
    15:00 +5°C° 0 mm 9 mps 737 mmHg 62%
    16:00 +5°C° 0 mm 9 mps 736 mmHg 64%
    17:00 +4°C° 0 mm 8 mps 736 mmHg 67%
    18:00 +2°C° 0 mm 8 mps 736 mmHg 69%
    19:00 +2°C° 0 mm 8 mps 736 mmHg 72%
    20:00 +2°C° 0 mm 8 mps 736 mmHg 74%
    21:00 +1°C° 0 mm 8 mps 735 mmHg 77%
    22:00 +1°C° 0 mm 8 mps 735 mmHg 77%
    23:00 +1°C° 0 mm 8 mps 735 mmHg 77%

    Day after tomorrow, 27 February, Thursday

    Time Temperature Precipitation Wind Pressure Humidity
    00:00 +2°C° 0 mm 7 mps 735 mmHg 77%
    01:00 +2°C° 0 mm 7 mps 734 mmHg 77%
    02:00 +2°C° 0 mm 7 mps 734 mmHg 76%
    03:00 +2°C° 0 mm 6 mps 734 mmHg 75%
    04:00 +2°C° 0 mm 6 mps 733 mmHg 76%
    05:00 +2°C° 0 mm 6 mps 733 mmHg 77%
    06:00 +3°C° 0 mm 6 mps 733 mmHg 78%
    07:00 +3°C° 0 mm 6 mps 733 mmHg 78%
    08:00 +4°C° 0 mm 7 mps 733 mmHg 79%
    09:00 +4°C° 0 mm 7 mps 733 mmHg 79%
    10:00 +6°C° 0 mm 7 mps 732 mmHg 75%
    11:00 +7°C° 0 mm 8 mps 732 mmHg 71%
    12:00 +9°C° 0 mm 8 mps 732 mmHg 67%
    13:00 +10°C° 0 mm 8 mps 732 mmHg 67%
    14:00 +11°C° 0 mm 9 mps 732 mmHg 66%
    15:00 +11°C° 0 mm 9 mps 732 mmHg 66%
    16:00 +11°C° 0 mm 8 mps 732 mmHg 71%
    17:00 +10°C° 0 mm 7 mps 731 mmHg 75%
    18:00 +9°C° 0 mm 6 mps 731 mmHg 80%
    19:00 +9°C° 0 mm 6 mps 731 mmHg 81%
    20:00 +9°C° 0 mm 6 mps 732 mmHg 82%
    21:00 +8°C° 0 mm 6 mps 732 mmHg 83%
    22:00 +8°C° 0.1 mm 6 mps 731 mmHg 83%
    23:00 +8°C° 0.1 mm 5 mps 731 mmHg 82%

    28 February, Friday

    Time Temperature Precipitation Wind Pressure Humidity
    00:00 +8°C° 0.1 mm 5 mps 731 mmHg 82%
    01:00 +7°C° 0 mm 5 mps 731 mmHg 82%
    02:00 +7°C° 0 mm 5 mps 730 mmHg 82%
    03:00 +6°C° 0 mm 5 mps 730 mmHg 82%
    04:00 +5°C° 0.5 mm 6 mps 729 mmHg 85%
    05:00 +5°C° 0.5 mm 6 mps 729 mmHg 88%
    06:00 +5°C° 0.5 mm 6 mps 728 mmHg 91%
    07:00 +5°C° 0.6 mm 7 mps 728 mmHg 88%
    08:00 +5°C° 0.6 mm 7 mps 728 mmHg 85%
    09:00 +5°C° 0.6 mm 8 mps 728 mmHg 83%
    10:00 +4°C° 0 mm 8 mps 729 mmHg 81%
    11:00 +2°C° 0 mm 8 mps 729 mmHg 80%
    12:00 +2°C° 0 mm 8 mps 729 mmHg 78%
    13:00 +1°C° 0.1 mm 9 mps 731 mmHg 78%
    14:00 +1°C° 0.1 mm 10 mps 732 mmHg 78%
    15:00 0°C° 0.1 mm 10 mps 733 mmHg 78%
    16:00 0°C° 0 mm 8 mps 734 mmHg 75%
    17:00 0°C° 0 mm 7 mps 735 mmHg 71%
    18:00 +1°C° 0 mm 5 mps 737 mmHg 67%
    19:00 +1°C° 0 mm 4 mps 738 mmHg 69%
    20:00 0°C° 0 mm 4 mps 738 mmHg 72%
    21:00 +1°C° 0 mm 3 mps 739 mmHg 74%
    22:00 +1°C° 0 mm 3 mps 739 mmHg 75%
    23:00 +1°C° 0 mm 2 mps 739 mmHg 76%

    29 February, Saturday

    Time Temperature Precipitation Wind Pressure Humidity
    00:00 +1°C° 0 mm 2 mps 739 mmHg 77%
    01:00 +1°C° 0 mm 2 mps 739 mmHg 77%
    02:00 +1°C° 0 mm 2 mps 739 mmHg 76%
    03:00 -1°C° 0 mm 2 mps 738 mmHg 76%
    04:00 0°C° 0 mm 3 mps 738 mmHg 77%
    05:00 0°C° 0 mm 3 mps 738 mmHg 78%
    06:00 0°C° 0 mm 3 mps 738 mmHg 79%
    07:00 0°C° 0 mm 3 mps 738 mmHg 82%
    08:00 +1°C° 0 mm 3 mps 738 mmHg 85%
    09:00 0°C° 0 mm 4 mps 737 mmHg 89%
    10:00 0°C° 0.4 mm 4 mps 737 mmHg 90%
    11:00 0°C° 0.4 mm 5 mps 737 mmHg 91%
    12:00 0°C° 0.4 mm 5 mps 736 mmHg 92%
    13:00 -1°C° 0.5 mm 6 mps 735 mmHg 93%
    14:00 -1°C° 0.5 mm 7 mps 735 mmHg 94%
    15:00 -1°C° 0.5 mm 7 mps 734 mmHg 95%
    16:00 -1°C° 0.8 mm 7 mps 734 mmHg 96%
    17:00 -1°C° 0.8 mm 7 mps 734 mmHg 96%
    18:00 -1°C° 0.8 mm 7 mps 734 mmHg 96%
    19:00 -1°C° 0.6 mm 7 mps 734 mmHg 96%
    20:00 -1°C° 0.6 mm 7 mps 734 mmHg 96%
    21:00 -1°C° 0.6 mm 7 mps 734 mmHg 96%
    22:00 -1°C° 0.2 mm 7 mps 734 mmHg 95%
    23:00 -2°C° 0.2 mm 8 mps 734 mmHg 95%

    1 March, Sunday

    Time Temperature Precipitation Wind Pressure Humidity
    00:00 -3°C° 0.2 mm 9 mps 734 mmHg 95%
    01:00 -3°C° 0.5 mm 9 mps 735 mmHg 94%
    02:00 -3°C° 0.5 mm 9 mps 735 mmHg 93%
    03:00 -4°C° 0.5 mm 9 mps 736 mmHg 92%
    04:00 -4°C° 0 mm 9 mps 736 mmHg 88%
    05:00 -4°C° 0 mm 9 mps 737 mmHg 84%
    06:00 -4°C° 0 mm 9 mps 738 mmHg 81%
    07:00 -4°C° 0 mm 8 mps 738 mmHg 79%
    08:00 -4°C° 0 mm 8 mps 739 mmHg 77%
    09:00 -4°C° 0 mm 8 mps 740 mmHg 75%
    10:00 -2°C° 0 mm 8 mps 740 mmHg 69%
    11:00 -1°C° 0 mm 8 mps 741 mmHg 63%
    12:00 0°C° 0 mm 7 mps 741 mmHg 57%
    13:00 +2°C° 0 mm 7 mps 742 mmHg 54%
    14:00 +3°C° 0 mm 7 mps 742 mmHg 52%
    15:00 +3°C° 0 mm 6 mps 742 mmHg 49%
    16:00 +3°C° 0 mm 5 mps 742 mmHg 53%
    17:00 +3°C° 0 mm 4 mps 742 mmHg 57%
    18:00 +3°C° 0 mm 2 mps 742 mmHg 61%
    19:00 +3°C° 0 mm 2 mps 742 mmHg 63%
    20:00 +3°C° 0 mm 2 mps 742 mmHg 66%
    21:00 +2°C° 0 mm 2 mps 742 mmHg 68%
    22:00 +2°C° 0 mm 2 mps 742 mmHg 73%
    23:00 +1°C° 0 mm 3 mps 742 mmHg 78%
    Show more